Regional Weather Roundup
Issued by NWS Green Bay, WI

Home | Current Version | Previous Version | Graphics & Text | Print | Product List | Glossary Off
Versions: 1 2 3 4 5 6 7 8 9 10 11 12 13 14 15 16 17 18 19 20 21 22 23 24 25 26 27 28 29 30 31 32 33 34 35 36 37 38 39 40 41 42 43 44 45 46 47 48 49 50

135
ASUS43 KGRB 280400
RWRGRB

NORTH-CENTRAL AND NORTHEAST WISCONSIN REGIONAL WEATHER ROUNDUP
NATIONAL WEATHER SERVICE GREEN BAY WI
1100 PM CDT WED JUL 27 2016

WIZ005-009-010>012-018-019-280500-
NORTH CENTRAL WISCONSIN

CITY           SKY/WX    TMP DP  RH WIND       PRES   REMARKS
IRONWOOD       CLOUDY    63  61  94 E6        30.02S
MANITOWISH WTR NOT AVBL
ARBOR VITAE    NOT AVBL
EAGLE RIVER    NOT AVBL
LAND O LAKES   NOT AVBL
RHINELANDER    CLOUDY    64  62  93 NE3       30.03S
PHILLIPS       CLOUDY    64  64 100 E5        30.00F
ANTIGO         NOT AVBL
TOMAHAWK       NOT AVBL
MERRILL        NOT AVBL
$$

WIZ013-073-280500-
NORTHEAST WISCONSIN

CITY           SKY/WX    TMP DP  RH WIND       PRES   REMARKS
IRON MOUNTAIN  LGT RAIN  62  59  90 CALM      30.02F
MARINETTE      RAIN     N/A N/A N/A N5        30.02
$$

WIZ017-030-035>037-045-280500-
CENTRAL WISCONSIN

CITY           SKY/WX    TMP DP  RH WIND       PRES   REMARKS
MEDFORD        NOT AVBL
WAUSAU         CLOUDY    64  63  96 CALM      29.98S
MOSINEE        NOT AVBL
MARSHFIELD     MOCLDY    66  63  90 E7        29.97S
WISC RAPIDS    CLOUDY    67  63  87 E8        29.98S
STEVENS POINT  NOT AVBL
WAUPACA        NOT AVBL
SHAWANO        NOT AVBL
CLINTONVILLE   NOT AVBL
WAUTOMA        NOT AVBL
$$

WIZ038-039-048-051-280500-
FOX VALLEY

CITY           SKY/WX    TMP DP  RH WIND       PRES   REMARKS
NWS GREEN BAY  RAIN      70  70 100 N7        29.98R FOG
APPLETON       LGT RAIN  70  68  94 NW8       29.98R
OSHKOSH        MOCLDY    72  66  81 SE3       29.95S
FOND DU LAC    CLEAR     71  65  81 E5        29.96S
$$

WIZ022-050-052-280500-
EAST CENTRAL WISCONSIN

CITY           SKY/WX    TMP DP  RH WIND       PRES   REMARKS
EPHRAIM        NOT AVBL
WASHINGTON ISL NOT AVBL
STURGEON BAY   CLOUDY    71  67  87 N8        30.00R
MANITOWOC      NOT AVBL
SHEBOYGAN      CLOUDY    67  65  93 CALM      29.96F FOG
$$

LMZ563-521-522-541>543-280500-
LAKESHORE

STATION/POSITION TIME  TEMP    WIND        PRES    VSBY  WAVE
                       AIR SEA DIR/SP/G                  HT/PER
                 (UTC) (F)     (DEG/KT/KT) (MB)    (MI)  (FT/S)
SHEBOYGAN LKSHOR 0300   67      30/  5/  6 1014.7R
KEWAUNEE LKSHORE 0300          290/  2/  2 1014.3
NORTHPORT PIER   0300   71      10/  9/ 12 1014.9R
N MID LAKE BUOY  0250   70 70   20/ 16/ 17 1013.6S         1
S GREEN BAY BUOY 0300   73 75   40/ 16/ 17   N/A
SISTER BAY LKSHO 0321   70      30/  8/  9   N/A
CHAMBERS ISLAND  0300   71     360/ 15/ 18 1014.9R
MENOMINEE LKSHOR 0300           10/ 14/ 18 1014.4
$$




USA.gov is the U.S. government's official web portal to all federal, state and local government web resources and services.